www.pogodaiklimat.ru

Погода и климат >> Архив погоды >> Россия >> Приморский край >> Барабаш


ПОГОДА в Барабаше

  • Прогноз погоды в Барабаше
  • Монитор погоды в Барабаше

АРХИВ ПОГОДЫ в Барабаше

Время (UTC), дата Ветер
(напр.,м/с)
 
Видим.   Явления Облачность Т
(С)
Тd
(С)
f
(%)
Тe
(С)
Тes
(С)
Комфортность P
(гПа)
Po
(гПа)
Тmin
(С)
Tmax
(С)
R
(мм)
R24
(мм)
S
(см)
18 11.08 штиль 0 н/о н/о +16.6 +16.3 98 +16 1010.9 1006.7
21 11.08 штиль 0 10 км слаб. дождь 10/10 300 м
[Frnb Ns]
+16.6 +16.2 97 +16 +16 1008.6 1004.4 +16.5 0.6
00 12.08 СЗ 1 н/о н/о +17.5 +17.2 98 +19 +19 1008.9 1004.7
03 12.08 ЮВ 1 20 км слаб. дождь 10 баллов +19.2 +18.5 96 +22 +22 комфорт 1009.5 1005.3
06 12.08 штиль 0 н/о н/о +20.0 +19.2 95 +23 1009.5 1005.3
09 12.08 штиль 0 20 км 10/10 600 м
[Sc]
+20.5 +19.2 92 +24 +24 комфорт 1007.9 1003.7 +20.5 9
12 12.08 Ю 1 н/о н/о +18.8 +18.3 97 +21 1009.5 1005.3
15 12.08 штиль 0 4000 м дымка 10 баллов +18.5 +18.2 98 +19 +19 1009.5 1005.3
18 12.08 штиль 0 н/о н/о +18.3 +18.0 98 +19 1009.5 1005.3
21 12.08 штиль 0 500 м туман ?/? +18.2 +18.2 100 +19 +19 1008.9 1004.7 +18.1
00 13.08 ЮВ 1 н/о н/о +20.2 +18.9 92 +25 1009.5 1005.3
03 13.08 штиль 0 10 км ливневой дождь 10 баллов +20.5 +19.5 94 +24 +24 комфорт 1010.9 1006.7
06 13.08 штиль 0 н/о н/о +20.3 +19.8 97 +24 1010.9 1006.7
09 13.08 Ю 2 20 км слаб. дождь 10/10 300 м
[Frnb Ns]
+19.5 +18.6 95 +23 +23 комфорт 1008.8 1004.6 +21.1 19
12 13.08 штиль 0 н/о н/о +18.8 +18.1 96 +20 1010.9 1006.7
15 13.08 СЗ 1 10 км слаб. дождь 10 баллов +18.2 +17.9 98 +20 +20 1010.9 1006.7
18 13.08 штиль 0 н/о н/о +18.1 +17.8 98 +18 1009.5 1005.3
21 13.08 штиль 0 10 км слаб. дождь 10/10 300 м
[Frnb Ns]
+18.0 +17.7 98 +18 +18 1008.2 1004.0 +18.0 5
00 14.08 штиль 0 н/о н/о +18.6 +18.3 98 +20 +20 1008.4 1004.2 +18.0
03 14.08 ЮВ 1 4000 м морось 10 баллов +18.7 +17.9 95 +21 +21 комфорт 1008.2 1004.0
06 14.08 ЮВ 1 н/о н/о +18.6 +17.4 93 +21 1008.2 1004.0
09 14.08 СЗ 1 20 км 10/10 600 м
[Sc]
+18.6 +17.5 93 +21 +21 комфорт 1006.2 1002.0 +19.3 2
12 14.08 штиль 0 н/о н/о +17.8 +17.2 96 +18 1008.2 1004.0
15 14.08 штиль 0 10 км 10 баллов +17.8 +16.8 94 +18 +18 1006.9 1002.7
18 14.08 СЗ 1 н/о н/о +17.2 +16.9 98 +18 1006.9 1002.7
21 14.08 СЗ 1 20 км в посл. час морось 10/10 300 м
[St]
+17.2 +16.9 98 +18 +18 1004.6 1000.4 +17.1 0.6
00 15.08 С 2 н/о н/о +18.6 +18.2 98 +20 +20 1004.0 999.8
03 15.08 СЗ 1 20 км слаб. дождь 10 баллов +19.7 +18.9 95 +24 +24 комфорт 1002.9 998.7
06 15.08 С 1 н/о н/о +19.8 +19.5 98 +24 1001.5 997.3
09 15.08 штиль 0 10 км слаб. дождь 10/10 300 м
[Frnb Ns]
+19.4 +19.1 98 +22 +22 комфорт 1000.2 996.0 +20.0 30
12 15.08 Ю 1 н/о н/о +20.0 +19.7 98 +25 997.4 993.3
15 15.08 С 1 4000 м дождь 10 баллов +20.1 +19.8 98 +25 +25 комфорт 996.1 992.0
18 15.08 штиль 0 н/о н/о +19.7 +19.4 98 +22 994.8 990.7
21 15.08 штиль 0 4000 м дождь 10/10 300 м
[Frnb Ns]
+19.6 +19.3 98 +22 +22 комфорт 991.9 987.8 +19.3 33
00 16.08 С 1 н/о н/о +20.1 +19.8 98 +25 +25 комфорт 991.9 987.8
03 16.08 С 1 4000 м дождь 10 баллов +20.8 +20.5 98 +27 +27 душно 992.1 988.0
06 16.08 ЮВ 1 н/о н/о +21.8 +21.1 96 +28 990.8 986.7
09 16.08 штиль 0 10 км слаб. дождь 10/10 300 м
[Frnb Ns]
+22.0 +21.7 98 +29 +29 очень
душно
990.4 986.3 +22.1 49
12 16.08 штиль 0 н/о н/о +20.9 +20.6 98 +26 992.1 988.0
15 16.08 штиль 0 10 км 7 баллов +19.6 +19.3 98 +22 +22 комфорт 993.4 989.3
18 16.08 В 1 н/о н/о +19.1 +18.8 98 +22 993.4 989.3
21 16.08 штиль 0 20 км 10/10 600 м
[Sc]
+19.6 +19.3 98 +22 +22 комфорт 993.8 989.7 +18.9 0.8
00 17.08 В 1 н/о н/о +20.4 +20.1 98 +26 +26 душно 994.8 990.7
03 17.08 В 1 20 км слаб. дождь 10 баллов +19.1 +18.1 94 +22 +22 комфорт 997.5 993.3
06 17.08 ЮВ 2 н/о н/о +18.6 +17.3 92 +20 998.9 994.7
09 17.08 ЮВ 1 10 км 10/10 300 м
[Sc]
+18.2 +16.9 92 +20 +20 998.5 994.3 +21.1 0.1
12 17.08 С 1 н/о н/о +17.6 +17.1 97 +19 1001.5 997.3
15 17.08 штиль 0 10 км 10 баллов +17.3 +17.0 98 +17 +17 1002.9 998.7
18 17.08 СЗ 1 н/о н/о +17.3 +17.0 98 +18 1004.2 1000.0
21 17.08 штиль 0 20 км {ливн. осадки} 10/10 600 м
[Sc]
+17.1 +16.8 98 +17 +17 1004.1 999.9 +17.0 4
00 18.08 ЮВ 1 н/о н/о +18.0 +17.7 98 +19 +19 1005.5 1001.3
03 18.08 З 1 20 км 10 баллов +19.3 +17.3 88 +22 +22 комфорт 1006.9 1002.7
06 18.08 Ю 2 н/о н/о +22.1 +17.7 76 +27 1006.9 1002.7
09 18.08 ЮЗ 1 20 км 9/9 600 м
[Sc]
+19.1 +17.3 89 +22 +22 комфорт 1007.0 1002.8 +22.7
12 18.08 штиль 0 н/о н/о +18.0 +17.0 94 +18 1009.5 1005.3

 

Местоположение метеостанции Барабаш (Приморский край, Россия): широта 43.20 долгота 131.40 высота над уровнем моря 36 м.

В архиве по умолчанию представлена погода в Барабаше за последнюю неделю. Архивные данные за месяц целиком и за предыдущие месяцы, начиная с января 2011 года, Вы можете получить, выбрав интересующий диапазон дат из раскрывающегося списка и нажав кнопку "Ввод!".


*Определитесь, кто Вы:
робот инопланетянин человек

Внимание! Время в таблицах - всемирное. Для получения местного времени необходимо прибавить поправку, которая равна 10 ч.

Смотрите также архив погоды в соседних городах и на ближайших метеорологических станциях:

Погода в Владивостоке (Приморский край, Россия) (42 км)
Погода на Мысе Назимова (Приморский край, Россия) (44 км)
Погода в Гамове (Приморский край, Россия) (74 км)
Погода в Посьете (Приморский край, Россия) (78 км)
Погода в Тимирязевском (Приморский край, Россия) (86 км)
Погода в Многоудобном (Приморский край, Россия) (92 км)
Погода в Полтавке (Приморский край, Россия) (93 км)
Погода в Находке (Приморский край, Россия) (122 км)
Погода в Сонбонге (КНДР) (127 км)
Погода в Партизанске (Приморский край, Россия) (130 км)

Пояснения к столбцам:

Ветер - указаны скорость ветра в м/с - средняя за 10 мин, порывы в срок и между сроками (в фигурных скобках) и направление, откуда дует ветер: С - северный, СВ - северо-восточный, В - восточный, ЮВ - юго-восточный, Ю - южный, ЮЗ - юго-западный, З - западный, СЗ - северо-западный.
Видимость - горизонтальная дальность видимости в метрах или километрах. При видимости от 1 до 10 км при отсутствии осадков обычно наблюдается дымка, при ухудшении видимости до 1 км и менее - туман. В сухую погоду видимость может ухудшаться дымом, пылью или мглою.
Явления - указаны атмосферные явления, наблюдавшиеся в срок или в последний час перед сроком; фигурными скобками обозначены явления, наблюдавшиеся между сроками (за 1-3 часа до срока); квадратными скобками обозначены град или гололедные отложения с указанием их диаметра в мм.
Облачность - указаны через наклонную черту общая и нижняя облачность в баллах и высота нижней границы облаков в метрах; квадратными скобками обозначены формы облаков: Ci - перистые, Cs - перисто-слоистые, Cc - перисто-кучевые, Ac - высококучевые, As - высокослоистые, Sc - слоисто-кучевые, Ns - слоисто-дождевые, Cu - кучевые, Cb - кучево-дождевые. Подробнее классификацию облаков см. в Атласе облаков (PDF).
T - Температура воздуха - температура, измеренная на высоте 2 м над землей.
Td - Температура точки росы - температура, при понижении до которой содержащийся в воздухе водяной пар достигнет насыщения.
f - Относительная влажность воздуха - влажноcть воздуха, измеренная на высоте 2 м над землей.
Te - Эффективная температура - температура, которую ощущает одетый по сезону человек в тени. Характеристика душности погоды. При расчете учитывается влияние влажности воздуха и скорости ветра на теплоощущения человека.
Tes - Эффективная температура на солнце - температура, которую ощущает человек, с поправкой на солнечный нагрев. Характеристика знойности погоды. Зависит от высоты солнца над горизонтом, облачности и скорости ветра. Ночью, в пасмурную погоду, а также при ветре 12 м/с и более поправка равна нулю.
P - Атмосферное давление - приведенное к уровню моря атмосферное давление.
Po - Атмосферное давление - измеренное на уровне метеостанции атмосферное давление.
Tmin - Минимальная температура - минимум температуры воздуха на высоте 2 м над землей.
Tmax - Максимальная температура - максимум температуры воздуха на высоте 2 м над землей.
R - Количество осадков - Количество выпавших осадков за период времени, мм. При наведении курсора мыши на число - период времени, за который выпало указанное количество осадков.
R24 - Количество осадков - Количество выпавших осадков за 24 часа, мм.
S - Снежный покров - Высота снежного покрова, см. При наведении курсора мыши на число - состояние снежного покрова и степень покрытия местности в баллах.